| time (UTC) | temp C | wind direction | speed KPH | gust KPH | rain 1hr cm | rain 24hr cm | rain mn cm | humidity % | barometer mb |
| 20260507143515 | 16 | 0 | 0.0 | 0.0 | 0.00 | 0.00 | 0.00 | 84 | 1017.9 |
| 20260507143038 | 15 | 0 | 0.0 | 0.0 | 0.00 | 0.00 | 0.00 | 84 | 1017.8 |
| 20260507142511 | 15 | 0 | 0.0 | 0.0 | 0.00 | 0.00 | 0.00 | 85 | 1017.8 |
| 20260507142024 | 14 | 0 | 0.0 | 0.0 | 0.00 | 0.00 | 0.00 | 87 | 1017.7 |
| 20260507141546 | 14 | 0 | 0.0 | 0.0 | 0.00 | 0.00 | 0.00 | 88 | 1017.8 |
| 20260507141010 | 13 | 0 | 0.0 | 0.0 | 0.00 | 0.00 | 0.00 | 88 | 1017.6 |
| 20260507140510 | 13 | 0 | 0.0 | 0.0 | 0.00 | 0.00 | 0.00 | 89 | 1017.8 |
| 20260507140034 | 13 | 0 | 0.0 | 0.0 | 0.00 | 0.00 | 0.00 | 90 | 1017.7 |
| 20260507135510 | 12 | 0 | 0.0 | 0.0 | 0.00 | 0.00 | 0.00 | 89 | 1017.6 |
| 20260507135015 | 12 | 0 | 0.0 | 0.0 | 0.00 | 0.00 | 0.00 | 90 | 1017.5 |
| 20260507134535 | 12 | 0 | 0.0 | 0.0 | 0.00 | 0.00 | 0.00 | 90 | 1017.5 |
| 20260507134014 | 12 | 0 | 0.0 | 1.6 | 0.00 | 0.00 | 0.00 | 91 | 1017.4 |
| 20260507133511 | 12 | 0 | 0.0 | 1.6 | 0.00 | 0.00 | 0.00 | 91 | 1017.3 |
| 20260507133057 | 12 | 0 | 0.0 | 0.0 | 0.00 | 0.00 | 0.00 | 90 | 1017.1 |
| 20260507132520 | 12 | 0 | 0.0 | 3.2 | 0.00 | 0.00 | 0.00 | 90 | 1017.1 |
| 20260507132012 | 12 | 0 | 0.0 | 3.2 | 0.00 | 0.00 | 0.00 | 90 | 1017.1 |
| 20260507131530 | 12 | 0 | 0.0 | 3.2 | 0.00 | 0.00 | 0.00 | 90 | 1017.1 |
| 20260507131010 | 12 | 0 | 0.0 | 0.0 | 0.00 | 0.00 | 0.00 | 90 | 1017.1 |
| 20260507130512 | 12 | 0 | 0.0 | 0.0 | 0.00 | 0.00 | 0.00 | 90 | 1017.1 |
| 20260507130036 | 12 | 0 | 0.0 | 3.2 | 0.00 | 0.00 | 0.00 | 90 | 1017.0 |
| 20260507125514 | 12 | 0 | 0.0 | 3.2 | 0.00 | 0.00 | 0.00 | 90 | 1017.0 |
| 20260507125013 | 12 | 95 | 1.6 | 3.2 | 0.00 | 0.00 | 0.00 | 90 | 1017.0 |
| 20260507124530 | 12 | 0 | 0.0 | 3.2 | 0.00 | 0.00 | 0.00 | 90 | 1017.0 |
| 20260507124013 | 12 | 0 | 0.0 | 1.6 | 0.00 | 0.00 | 0.00 | 90 | 1017.0 |
| 20260507123518 | 12 | 0 | 0.0 | 4.8 | 0.00 | 0.00 | 0.00 | 90 | 1017.0 |
| 20260507123038 | 12 | 95 | 1.6 | 4.8 | 0.00 | 0.00 | 0.00 | 90 | 1016.9 |
| 20260507122513 | 11 | 95 | 1.6 | 4.8 | 0.00 | 0.00 | 0.00 | 89 | 1017.0 |
| 20260507122014 | 12 | 95 | 0.0 | 4.8 | 0.00 | 0.00 | 0.00 | 89 | 1017.0 |
| 20260507121534 | 12 | 0 | 0.0 | 0.0 | 0.00 | 0.00 | 0.00 | 89 | 1016.9 |
| 20260507121011 | 12 | 0 | 0.0 | 0.0 | 0.00 | 0.00 | 0.00 | 89 | 1017.0 |
| 20260507120511 | 12 | 0 | 0.0 | 0.0 | 0.00 | 0.00 | 0.00 | 88 | 1016.9 |
| 20260507120035 | 12 | 0 | 0.0 | 0.0 | 0.00 | 0.00 | 0.00 | 88 | 1016.9 |
| 20260507115510 | 12 | 0 | 0.0 | 0.0 | 0.00 | 0.00 | 0.00 | 89 | 1016.9 |
| 20260507115013 | 12 | 0 | 0.0 | 0.0 | 0.00 | 0.00 | 0.00 | 88 | 1017.0 |
| 20260507114537 | 12 | 0 | 0.0 | 0.0 | 0.00 | 0.00 | 0.00 | 88 | 1017.0 |
| 20260507114014 | 12 | 0 | 0.0 | 0.0 | 0.00 | 0.00 | 0.00 | 88 | 1016.9 |
| 20260507113514 | 12 | 0 | 0.0 | 0.0 | 0.00 | 0.00 | 0.00 | 88 | 1016.8 |
| 20260507113034 | 13 | 0 | 0.0 | 0.0 | 0.00 | 0.00 | 0.00 | 88 | 1016.9 |
| 20260507112514 | 13 | 0 | 0.0 | 0.0 | 0.00 | 0.00 | 0.00 | 88 | 1017.0 |
| 20260507112018 | 13 | 0 | 0.0 | 0.0 | 0.00 | 0.00 | 0.00 | 88 | 1017.1 |
| 20260507111532 | 13 | 0 | 0.0 | 0.0 | 0.00 | 0.00 | 0.00 | 88 | 1017.2 |
| 20260507111013 | 13 | 0 | 0.0 | 0.0 | 0.00 | 0.00 | 0.00 | 88 | 1017.2 |
| 20260507110513 | 13 | 0 | 0.0 | 0.0 | 0.00 | 0.00 | 0.00 | 89 | 1017.1 |
| 20260507110039 | 12 | 0 | 0.0 | 0.0 | 0.00 | 0.00 | 0.00 | 88 | 1017.2 |
| 20260507105511 | 12 | 0 | 0.0 | 0.0 | 0.00 | 0.00 | 0.00 | 88 | 1017.3 |
| 20260507105011 | 12 | 0 | 0.0 | 0.0 | 0.00 | 0.00 | 0.00 | 88 | 1017.4 |
| 20260507104534 | 12 | 0 | 0.0 | 0.0 | 0.00 | 0.00 | 0.00 | 88 | 1017.3 |
| 20260507104014 | 13 | 0 | 0.0 | 0.0 | 0.00 | 0.00 | 0.00 | 88 | 1017.3 |
| 20260507103513 | 13 | 0 | 0.0 | 0.0 | 0.00 | 0.00 | 0.00 | 87 | 1017.3 |
| 20260507103039 | 13 | 0 | 0.0 | 0.0 | 0.00 | 0.00 | 0.00 | 87 | 1017.3 |
| 20260507102511 | 13 | 0 | 0.0 | 4.8 | 0.00 | 0.00 | 0.00 | 87 | 1017.2 |
| 20260507102017 | 13 | 0 | 0.0 | 4.8 | 0.00 | 0.00 | 0.00 | 87 | 1017.3 |
| 20260507101536 | 13 | 95 | 1.6 | 4.8 | 0.00 | 0.00 | 0.00 | 86 | 1017.2 |
| 20260507101011 | 13 | 84 | 1.6 | 3.2 | 0.00 | 0.00 | 0.00 | 87 | 1017.3 |
| 20260507100509 | 13 | 0 | 1.6 | 3.2 | 0.00 | 0.00 | 0.00 | 86 | 1017.1 |
| 20260507100036 | 13 | 0 | 1.6 | 6.4 | 0.00 | 0.00 | 0.00 | 86 | 1017.2 |
| 20260507095516 | 13 | 83 | 0.0 | 6.4 | 0.00 | 0.00 | 0.00 | 86 | 1017.3 |
| 20260507095014 | 13 | 80 | 3.2 | 6.4 | 0.00 | 0.00 | 0.00 | 86 | 1017.3 |
| 20260507094537 | 13 | 86 | 1.6 | 4.8 | 0.00 | 0.00 | 0.00 | 87 | 1017.3 |
| 20260507094020 | 13 | 86 | 0.0 | 3.2 | 0.00 | 0.00 | 0.00 | 86 | 1017.4 |
| 20260507093515 | 13 | 0 | 1.6 | 6.4 | 0.00 | 0.00 | 0.00 | 86 | 1017.4 |
| 20260507093032 | 13 | 86 | 1.6 | 6.4 | 0.00 | 0.00 | 0.00 | 86 | 1017.4 |
| 20260507092513 | 13 | 99 | 3.2 | 6.4 | 0.00 | 0.00 | 0.00 | 86 | 1017.4 |
| 20260507092013 | 13 | 103 | 0.0 | 3.2 | 0.00 | 0.00 | 0.00 | 86 | 1017.5 |
| 20260507091535 | 13 | 0 | 0.0 | 3.2 | 0.00 | 0.00 | 0.00 | 86 | 1017.5 |
| 20260507091011 | 13 | 103 | 0.0 | 9.7 | 0.00 | 0.00 | 0.00 | 86 | 1017.6 |
| 20260507090512 | 13 | 103 | 1.6 | 9.7 | 0.00 | 0.00 | 0.00 | 86 | 1017.7 |
| 20260507090030 | 13 | 96 | 0.0 | 3.2 | 0.00 | 0.00 | 0.00 | 87 | 1017.8 |
| 20260507085510 | 13 | 0 | 0.0 | 3.2 | 0.00 | 0.00 | 0.00 | 87 | 1017.8 |
| 20260507085013 | 13 | 0 | 0.0 | 4.8 | 0.00 | 0.00 | 0.00 | 87 | 1017.9 |
| 20260507084538 | 13 | 96 | 0.0 | 4.8 | 0.00 | 0.00 | 0.00 | 88 | 1018.0 |
| 20260507084012 | 13 | 96 | 0.0 | 6.4 | 0.00 | 0.00 | 0.00 | 88 | 1018.0 |
| 20260507083511 | 13 | 0 | 0.0 | 6.4 | 0.00 | 0.00 | 0.00 | 88 | 1018.0 |
| 20260507083032 | 13 | 96 | 3.2 | 6.4 | 0.00 | 0.00 | 0.00 | 88 | 1018.0 |
| 20260507082510 | 14 | 296 | 0.0 | 4.8 | 0.00 | 0.00 | 0.00 | 89 | 1018.0 |
| 20260507082014 | 14 | 0 | 0.0 | 4.8 | 0.00 | 0.00 | 0.00 | 89 | 1018.2 |
| 20260507081538 | 14 | 0 | 0.0 | 0.0 | 0.00 | 0.00 | 0.00 | 89 | 1018.2 |
| 20260507081013 | 14 | 0 | 0.0 | 0.0 | 0.00 | 0.00 | 0.00 | 89 | 1018.2 |
| 20260507080511 | 14 | 0 | 0.0 | 0.0 | 0.00 | 0.00 | 0.00 | 89 | 1018.2 |
| 20260507080031 | 14 | 0 | 0.0 | 0.0 | 0.00 | 0.00 | 0.00 | 88 | 1018.3 |
| 20260507075510 | 14 | 0 | 0.0 | 0.0 | 0.00 | 0.00 | 0.00 | 88 | 1018.2 |
| 20260507075011 | 14 | 0 | 0.0 | 0.0 | 0.00 | 0.00 | 0.00 | 88 | 1018.2 |
| 20260507074534 | 14 | 0 | 0.0 | 0.0 | 0.00 | 0.00 | 0.00 | 88 | 1018.1 |
| 20260507074013 | 14 | 0 | 0.0 | 0.0 | 0.00 | 0.00 | 0.00 | 87 | 1018.1 |
| 20260507073511 | 14 | 0 | 0.0 | 0.0 | 0.00 | 0.00 | 0.00 | 86 | 1018.1 |
| 20260507073032 | 15 | 0 | 0.0 | 0.0 | 0.00 | 0.00 | 0.00 | 87 | 1018.1 |
| 20260507072513 | 15 | 0 | 0.0 | 0.0 | 0.00 | 0.00 | 0.00 | 87 | 1018.2 |
| 20260507072013 | 15 | 0 | 0.0 | 0.0 | 0.00 | 0.00 | 0.00 | 87 | 1018.2 |
| 20260507071535 | 15 | 0 | 0.0 | 1.6 | 0.00 | 0.00 | 0.00 | 87 | 1018.2 |
| 20260507071013 | 15 | 0 | 0.0 | 3.2 | 0.00 | 0.00 | 0.00 | 87 | 1018.3 |
| 20260507070510 | 15 | 0 | 0.0 | 6.4 | 0.00 | 0.00 | 0.00 | 87 | 1018.2 |
| 20260507070041 | 15 | 0 | 1.6 | 6.4 | 0.00 | 0.00 | 0.00 | 87 | 1018.4 |
| 20260507065514 | 15 | 271 | 0.0 | 4.8 | 0.00 | 0.00 | 0.00 | 86 | 1018.3 |
| 20260507065016 | 15 | 271 | 1.6 | 4.8 | 0.00 | 0.00 | 0.00 | 86 | 1018.3 |
| 20260507064535 | 15 | 271 | 3.2 | 4.8 | 0.00 | 0.00 | 0.00 | 86 | 1018.3 |
| 20260507064015 | 15 | 300 | 1.6 | 4.8 | 0.00 | 0.00 | 0.00 | 86 | 1018.4 |
| 20260507063513 | 15 | 300 | 1.6 | 4.8 | 0.00 | 0.00 | 0.00 | 85 | 1018.5 |
| 20260507063035 | 15 | 300 | 1.6 | 4.8 | 0.00 | 0.00 | 0.00 | 85 | 1018.4 |
| 20260507062511 | 15 | 0 | 0.0 | 3.2 | 0.00 | 0.00 | 0.00 | 85 | 1018.5 |
| 20260507062016 | 15 | 0 | 0.0 | 3.2 | 0.00 | 0.00 | 0.00 | 84 | 1018.5 |
| 20260507061532 | 15 | 300 | 0.0 | 3.2 | 0.00 | 0.00 | 0.00 | 84 | 1018.4 |
| 20260507061020 | 15 | 300 | 0.0 | 6.4 | 0.00 | 0.00 | 0.00 | 84 | 1018.5 |
| 20260507060511 | 15 | 0 | 1.6 | 6.4 | 0.00 | 0.00 | 0.00 | 84 | 1018.6 |
| 20260507060030 | 15 | 300 | 1.6 | 4.8 | 0.00 | 0.00 | 0.00 | 83 | 1018.6 |
| 20260507055513 | 15 | 300 | 1.6 | 4.8 | 0.00 | 0.00 | 0.00 | 82 | 1018.7 |
| 20260507055011 | 15 | 300 | 1.6 | 4.8 | 0.00 | 0.00 | 0.00 | 82 | 1018.6 |
| 20260507054533 | 15 | 0 | 0.0 | 3.2 | 0.00 | 0.00 | 0.00 | 81 | 1018.5 |
| 20260507054013 | 15 | 300 | 1.6 | 3.2 | 0.00 | 0.00 | 0.00 | 81 | 1018.5 |
| 20260507053514 | 15 | 300 | 0.0 | 3.2 | 0.00 | 0.00 | 0.00 | 81 | 1018.5 |
| 20260507053032 | 15 | 0 | 0.0 | 4.8 | 0.00 | 0.00 | 0.00 | 80 | 1018.5 |
| 20260507052513 | 16 | 300 | 1.6 | 4.8 | 0.00 | 0.00 | 0.00 | 80 | 1018.5 |
| 20260507052012 | 16 | 300 | 0.0 | 3.2 | 0.00 | 0.00 | 0.00 | 79 | 1018.5 |
| 20260507051532 | 16 | 0 | 0.0 | 0.0 | 0.00 | 0.00 | 0.00 | 79 | 1018.5 |
| 20260507051010 | 16 | 0 | 0.0 | 0.0 | 0.00 | 0.00 | 0.00 | 78 | 1018.5 |
| 20260507050514 | 16 | 0 | 0.0 | 0.0 | 0.00 | 0.00 | 0.00 | 78 | 1018.5 |
| 20260507050035 | 16 | 0 | 0.0 | 0.0 | 0.00 | 0.00 | 0.00 | 77 | 1018.5 |
| 20260507045510 | 16 | 0 | 0.0 | 0.0 | 0.00 | 0.00 | 0.00 | 77 | 1018.4 |
| 20260507045015 | 16 | 0 | 0.0 | 0.0 | 0.00 | 0.00 | 0.00 | 77 | 1018.4 |
| 20260507044530 | 16 | 0 | 0.0 | 0.0 | 0.00 | 0.00 | 0.00 | 77 | 1018.4 |
| 20260507044015 | 16 | 0 | 0.0 | 1.6 | 0.00 | 0.00 | 0.00 | 77 | 1018.4 |
| 20260507043514 | 16 | 0 | 0.0 | 3.2 | 0.00 | 0.00 | 0.00 | 77 | 1018.5 |
| 20260507043031 | 16 | 0 | 0.0 | 4.8 | 0.00 | 0.00 | 0.00 | 77 | 1018.5 |
| 20260507042513 | 16 | 300 | 0.0 | 4.8 | 0.00 | 0.00 | 0.00 | 77 | 1018.5 |
| 20260507042021 | 16 | 300 | 0.0 | 4.8 | 0.00 | 0.00 | 0.00 | 78 | 1018.4 |
| 20260507041530 | 16 | 300 | 1.6 | 9.7 | 0.00 | 0.00 | 0.00 | 78 | 1018.5 |
| 20260507041015 | 16 | 300 | 1.6 | 9.7 | 0.00 | 0.00 | 0.00 | 78 | 1018.3 |
| 20260507040514 | 16 | 285 | 4.8 | 9.7 | 0.00 | 0.00 | 0.00 | 78 | 1018.3 |
| 20260507040037 | 16 | 286 | 1.6 | 6.4 | 0.00 | 0.00 | 0.00 | 77 | 1018.4 |
| 20260507035517 | 16 | 286 | 1.6 | 6.4 | 0.00 | 0.00 | 0.00 | 77 | 1018.3 |
| 20260507035014 | 16 | 292 | 0.0 | 6.4 | 0.00 | 0.00 | 0.00 | 76 | 1018.2 |
| 20260507034539 | 16 | 295 | 1.6 | 6.4 | 0.00 | 0.00 | 0.00 | 76 | 1018.2 |
| 20260507034010 | 16 | 281 | 1.6 | 6.4 | 0.00 | 0.00 | 0.00 | 76 | 1018.2 |
| 20260507033513 | 16 | 0 | 0.0 | 9.7 | 0.00 | 0.00 | 0.00 | 76 | 1018.0 |
| 20260507033044 | 16 | 269 | 3.2 | 11.3 | 0.00 | 0.00 | 0.00 | 76 | 1018.0 |
| 20260507032513 | 16 | 244 | 3.2 | 11.3 | 0.00 | 0.00 | 0.00 | 77 | 1018.0 |
| 20260507032017 | 16 | 287 | 3.2 | 12.9 | 0.00 | 0.00 | 0.00 | 79 | 1017.9 |
| 20260507031545 | 16 | 275 | 4.8 | 12.9 | 0.00 | 0.00 | 0.00 | 79 | 1017.8 |
| 20260507031016 | 16 | 269 | 6.4 | 12.9 | 0.00 | 0.00 | 0.00 | 78 | 1017.8 |
| 20260507030512 | 16 | 287 | 3.2 | 14.5 | 0.00 | 0.00 | 0.00 | 77 | 1017.9 |
| 20260507030033 | 16 | 300 | 4.8 | 14.5 | 0.00 | 0.00 | 0.00 | 77 | 1017.8 |
| 20260507025513 | 16 | 260 | 3.2 | 16.1 | 0.00 | 0.00 | 0.00 | 78 | 1017.7 |
| 20260507025018 | 16 | 304 | 6.4 | 16.1 | 0.00 | 0.00 | 0.00 | 79 | 1017.7 |
| 20260507024536 | 16 | 288 | 4.8 | 12.9 | 0.00 | 0.00 | 0.00 | 81 | 1017.5 |
| 20260507024013 | 16 | 274 | 3.2 | 14.5 | 0.00 | 0.00 | 0.00 | 81 | 1017.5 |
| 20260507023515 | 16 | 0 | 3.2 | 14.5 | 0.00 | 0.00 | 0.00 | 81 | 1017.6 |
| 20260507023030 | 16 | 287 | 6.4 | 12.9 | 0.00 | 0.00 | 0.00 | 81 | 1017.4 |
| 20260507022511 | 16 | 271 | 6.4 | 14.5 | 0.00 | 0.00 | 0.00 | 80 | 1017.4 |
| 20260507022014 | 16 | 250 | 6.4 | 14.5 | 0.00 | 0.00 | 0.00 | 80 | 1017.4 |
| 20260507021536 | 17 | 293 | 6.4 | 14.5 | 0.00 | 0.00 | 0.00 | 80 | 1017.4 |
| 20260507021010 | 17 | 284 | 3.2 | 11.3 | 0.00 | 0.00 | 0.00 | 80 | 1017.3 |
| 20260507020512 | 17 | 236 | 4.8 | 17.7 | 0.00 | 0.00 | 0.00 | 81 | 1017.3 |
| 20260507020034 | 17 | 269 | 6.4 | 19.3 | 0.00 | 0.00 | 0.00 | 81 | 1017.3 |
| 20260507015514 | 17 | 275 | 12.9 | 19.3 | 0.00 | 0.00 | 0.00 | 79 | 1017.3 |
| 20260507015011 | 17 | 232 | 8.0 | 14.5 | 0.00 | 0.00 | 0.00 | 80 | 1017.2 |
| 20260507014542 | 17 | 262 | 6.4 | 17.7 | 0.00 | 0.00 | 0.00 | 80 | 1017.2 |
| 20260507014010 | 17 | 289 | 8.0 | 17.7 | 0.00 | 0.00 | 0.00 | 81 | 1017.3 |
| 20260507013513 | 17 | 237 | 8.0 | 17.7 | 0.00 | 0.00 | 0.00 | 80 | 1017.2 |
| 20260507013036 | 17 | 255 | 8.0 | 19.3 | 0.00 | 0.00 | 0.00 | 80 | 1017.2 |
| 20260507012513 | 17 | 250 | 11.3 | 19.3 | 0.00 | 0.00 | 0.00 | 81 | 1017.2 |
| 20260507012012 | 17 | 267 | 8.0 | 24.1 | 0.00 | 0.00 | 0.00 | 81 | 1017.2 |
| 20260507011535 | 17 | 291 | 9.7 | 24.1 | 0.00 | 0.00 | 0.00 | 80 | 1017.1 |
| 20260507011013 | 17 | 254 | 11.3 | 19.3 | 0.00 | 0.00 | 0.00 | 80 | 1017.1 |
| 20260507010511 | 17 | 288 | 8.0 | 20.9 | 0.00 | 0.00 | 0.00 | 79 | 1017.1 |
| 20260507010038 | 17 | 231 | 9.7 | 22.5 | 0.00 | 0.00 | 0.00 | 79 | 1017.1 |
| 20260507005514 | 18 | 240 | 11.3 | 22.5 | 0.00 | 0.00 | 0.00 | 78 | 1017.2 |
| 20260507005019 | 18 | 238 | 6.4 | 22.5 | 0.00 | 0.00 | 0.00 | 80 | 1017.1 |
| 20260507004532 | 18 | 269 | 12.9 | 22.5 | 0.00 | 0.00 | 0.00 | 80 | 1017.1 |
| 20260507004010 | 18 | 293 | 12.9 | 22.5 | 0.00 | 0.00 | 0.00 | 79 | 1017.1 |
| 20260507003512 | 18 | 234 | 8.0 | 22.5 | 0.00 | 0.00 | 0.00 | 79 | 1017.2 |
| 20260507003033 | 18 | 245 | 12.9 | 22.5 | 0.00 | 0.00 | 0.00 | 78 | 1017.3 |
| 20260507002510 | 18 | 266 | 9.7 | 22.5 | 0.00 | 0.00 | 0.00 | 79 | 1017.2 |
| 20260507002016 | 18 | 289 | 11.3 | 22.5 | 0.00 | 0.00 | 0.00 | 78 | 1017.1 |
| 20260507001535 | 18 | 277 | 11.3 | 24.1 | 0.00 | 0.00 | 0.00 | 78 | 1017.0 |
| 20260507001012 | 18 | 275 | 12.9 | 24.1 | 0.00 | 0.00 | 0.00 | 79 | 1017.1 |
| 20260507000514 | 18 | 265 | 11.3 | 22.5 | 0.00 | 0.00 | 0.00 | 79 | 1017.0 |
| 20260507000030 | 18 | 248 | 9.7 | 22.5 | 0.00 | 0.00 | 0.00 | 79 | 1017.0 |
| 20260506235516 | 18 | 284 | 11.3 | 22.5 | 0.00 | 0.00 | 0.00 | 78 | 1017.1 |
| 20260506235010 | 18 | 247 | 8.0 | 20.9 | 0.00 | 0.00 | 0.00 | 77 | 1017.1 |
| 20260506234534 | 18 | 302 | 12.9 | 24.1 | 0.00 | 0.00 | 0.00 | 74 | 1017.0 |
| 20260506234013 | 19 | 260 | 9.7 | 24.1 | 0.00 | 0.00 | 0.00 | 73 | 1017.0 |
| 20260506233513 | 19 | 271 | 8.0 | 24.1 | 0.00 | 0.00 | 0.00 | 73 | 1016.9 |
| 20260506233032 | 19 | 287 | 11.3 | 22.5 | 0.00 | 0.00 | 0.00 | 72 | 1017.0 |
| 20260506232513 | 19 | 280 | 12.9 | 24.1 | 0.00 | 0.00 | 0.00 | 71 | 1017.0 |
| 20260506232013 | 19 | 253 | 11.3 | 24.1 | 0.00 | 0.00 | 0.00 | 71 | 1016.9 |
| 20260506231533 | 20 | 269 | 12.9 | 20.9 | 0.00 | 0.00 | 0.00 | 70 | 1016.8 |
| 20260506231013 | 19 | 295 | 8.0 | 25.7 | 0.00 | 0.00 | 0.00 | 69 | 1016.9 |
| 20260506230515 | 19 | 257 | 9.7 | 25.7 | 0.00 | 0.00 | 0.00 | 69 | 1017.0 |
| 20260506230033 | 20 | 250 | 12.9 | 24.1 | 0.00 | 0.00 | 0.00 | 68 | 1017.0 |
| 20260506225515 | 20 | 241 | 11.3 | 20.9 | 0.00 | 0.00 | 0.00 | 64 | 1017.0 |
| 20260506225023 | 20 | 230 | 9.7 | 20.9 | 0.00 | 0.00 | 0.00 | 59 | 1017.1 |
| 20260506224534 | 20 | 256 | 9.7 | 20.9 | 0.00 | 0.00 | 0.00 | 56 | 1017.3 |
| 20260506224014 | 19 | 253 | 11.3 | 20.9 | 0.00 | 0.00 | 0.00 | 57 | 1017.3 |
| 20260506223514 | 19 | 242 | 9.7 | 20.9 | 0.00 | 0.00 | 0.00 | 65 | 1017.2 |
| 20260506223031 | 19 | 257 | 6.4 | 19.3 | 0.00 | 0.00 | 0.00 | 68 | 1017.3 |
| 20260506222514 | 18 | 244 | 9.7 | 19.3 | 0.00 | 0.00 | 0.00 | 71 | 1017.3 |
| 20260506222011 | 18 | 219 | 8.0 | 20.9 | 0.00 | 0.00 | 0.00 | 75 | 1017.3 |
| 20260506221530 | 18 | 261 | 11.3 | 20.9 | 0.00 | 0.00 | 0.00 | 77 | 1017.5 |
| 20260506221013 | 18 | 225 | 9.7 | 17.7 | 0.00 | 0.00 | 0.00 | 79 | 1017.5 |
| 20260506220513 | 18 | 258 | 8.0 | 22.5 | 0.00 | 0.00 | 0.00 | 78 | 1017.7 |
| 20260506220032 | 18 | 256 | 9.7 | 22.5 | 0.00 | 0.00 | 0.00 | 79 | 1017.7 |
| 20260506215513 | 17 | 243 | 9.7 | 22.5 | 0.00 | 0.00 | 0.00 | 80 | 1017.7 |
| 20260506215011 | 18 | 223 | 11.3 | 20.9 | 0.00 | 0.00 | 0.00 | 79 | 1017.8 |
| 20260506214533 | 18 | 263 | 11.3 | 20.9 | 0.00 | 0.00 | 0.00 | 78 | 1017.8 |
| 20260506214010 | 18 | 292 | 9.7 | 22.5 | 0.00 | 0.00 | 0.00 | 79 | 1017.9 |
| 20260506213513 | 18 | 215 | 11.3 | 22.5 | 0.00 | 0.00 | 0.00 | 78 | 1018.0 |
| 20260506213032 | 18 | 232 | 8.0 | 20.9 | 0.00 | 0.00 | 0.00 | 77 | 1018.1 |
| 20260506212511 | 18 | 221 | 9.7 | 22.5 | 0.00 | 0.00 | 0.00 | 78 | 1018.2 |
| 20260506212017 | 17 | 254 | 12.9 | 25.7 | 0.00 | 0.00 | 0.00 | 79 | 1018.3 |
| 20260506211531 | 18 | 242 | 9.7 | 25.7 | 0.00 | 0.00 | 0.00 | 79 | 1018.2 |
| 20260506211014 | 17 | 274 | 14.5 | 25.7 | 0.00 | 0.00 | 0.00 | 78 | 1018.3 |
| 20260506210514 | 18 | 263 | 11.3 | 22.5 | 0.00 | 0.00 | 0.00 | 77 | 1018.3 |
| 20260506210035 | 18 | 283 | 9.7 | 20.9 | 0.00 | 0.00 | 0.00 | 78 | 1018.4 |
| 20260506205513 | 17 | 280 | 11.3 | 22.5 | 0.00 | 0.00 | 0.00 | 78 | 1018.4 |
| 20260506205014 | 17 | 226 | 12.9 | 22.5 | 0.00 | 0.00 | 0.00 | 79 | 1018.4 |
| 20260506204535 | 17 | 281 | 12.9 | 27.4 | 0.00 | 0.00 | 0.00 | 78 | 1018.5 |
| 20260506204014 | 17 | 247 | 12.9 | 27.4 | 0.00 | 0.00 | 0.00 | 79 | 1018.5 |
| 20260506203513 | 17 | 254 | 11.3 | 24.1 | 0.00 | 0.00 | 0.00 | 80 | 1018.5 |
| 20260506203038 | 17 | 290 | 14.5 | 22.5 | 0.00 | 0.00 | 0.00 | 78 | 1018.5 |
| 20260506202513 | 17 | 240 | 12.9 | 25.7 | 0.00 | 0.00 | 0.00 | 77 | 1018.6 |
| 20260506202014 | 17 | 243 | 12.9 | 25.7 | 0.00 | 0.00 | 0.00 | 78 | 1018.6 |
| 20260506201536 | 17 | 285 | 9.7 | 22.5 | 0.00 | 0.00 | 0.00 | 78 | 1018.7 |
| 20260506201013 | 17 | 249 | 11.3 | 24.1 | 0.00 | 0.00 | 0.00 | 77 | 1018.8 |
| 20260506200515 | 17 | 265 | 11.3 | 24.1 | 0.00 | 0.00 | 0.00 | 78 | 1018.8 |
| 20260506200038 | 17 | 250 | 14.5 | 24.1 | 0.00 | 0.00 | 0.00 | 77 | 1018.9 |
| 20260506195510 | 17 | 229 | 11.3 | 20.9 | 0.00 | 0.00 | 0.00 | 76 | 1019.0 |
| 20260506195014 | 17 | 255 | 9.7 | 20.9 | 0.00 | 0.00 | 0.00 | 77 | 1019.0 |
| 20260506194530 | 17 | 242 | 12.9 | 22.5 | 0.00 | 0.00 | 0.00 | 76 | 1019.1 |
| 20260506194018 | 18 | 264 | 9.7 | 22.5 | 0.00 | 0.00 | 0.00 | 77 | 1019.2 |
| 20260506193510 | 17 | 263 | 11.3 | 22.5 | 0.00 | 0.00 | 0.00 | 77 | 1019.2 |
| 20260506193032 | 18 | 248 | 11.3 | 19.3 | 0.00 | 0.00 | 0.00 | 76 | 1019.2 |
| 20260506192513 | 18 | 224 | 9.7 | 19.3 | 0.00 | 0.00 | 0.00 | 76 | 1019.4 |
| 20260506192014 | 18 | 259 | 8.0 | 19.3 | 0.00 | 0.00 | 0.00 | 75 | 1019.4 |
| 20260506191535 | 18 | 315 | 4.8 | 17.7 | 0.00 | 0.00 | 0.00 | 76 | 1019.5 |
| 20260506191011 | 18 | 206 | 8.0 | 17.7 | 0.00 | 0.00 | 0.00 | 76 | 1019.6 |
| 20260506190514 | 18 | 233 | 8.0 | 17.7 | 0.00 | 0.00 | 0.00 | 76 | 1019.6 |
| 20260506190038 | 18 | 250 | 4.8 | 22.5 | 0.00 | 0.00 | 0.00 | 78 | 1019.6 |
| 20260506185512 | 18 | 248 | 8.0 | 22.5 | 0.00 | 0.00 | 0.00 | 78 | 1019.5 |
| 20260506185011 | 18 | 275 | 6.4 | 20.9 | 0.00 | 0.00 | 0.00 | 78 | 1019.7 |
| 20260506184543 | 18 | 225 | 8.0 | 16.1 | 0.00 | 0.00 | 0.00 | 77 | 1019.7 |
| 20260506184013 | 17 | 242 | 4.8 | 16.1 | 0.00 | 0.00 | 0.00 | 78 | 1019.7 |
| 20260506183514 | 17 | 175 | 9.7 | 16.1 | 0.00 | 0.00 | 0.00 | 77 | 1019.7 |
| 20260506183030 | 17 | 166 | 6.4 | 17.7 | 0.00 | 0.00 | 0.00 | 79 | 1019.7 |
| 20260506182511 | 17 | 203 | 8.0 | 17.7 | 0.00 | 0.00 | 0.00 | 78 | 1019.7 |
| 20260506182014 | 17 | 259 | 8.0 | 17.7 | 0.00 | 0.00 | 0.00 | 78 | 1019.7 |
| 20260506181534 | 17 | 273 | 4.8 | 14.5 | 0.00 | 0.00 | 0.00 | 77 | 1019.8 |
| 20260506181015 | 17 | 179 | 4.8 | 17.7 | 0.00 | 0.00 | 0.00 | 77 | 1019.8 |
| 20260506180514 | 17 | 190 | 6.4 | 19.3 | 0.00 | 0.00 | 0.00 | 76 | 1019.8 |
| 20260506180032 | 17 | 253 | 4.8 | 19.3 | 0.00 | 0.00 | 0.00 | 78 | 1019.7 |
| 20260506175514 | 17 | 234 | 6.4 | 17.7 | 0.00 | 0.00 | 0.00 | 77 | 1019.8 |
| 20260506175016 | 17 | 255 | 8.0 | 17.7 | 0.00 | 0.00 | 0.00 | 76 | 1019.6 |
| 20260506174530 | 17 | 227 | 6.4 | 14.5 | 0.00 | 0.00 | 0.00 | 75 | 1019.7 |
| 20260506174012 | 18 | 209 | 6.4 | 14.5 | 0.00 | 0.00 | 0.00 | 75 | 1019.7 |
| 20260506173512 | 18 | 160 | 4.8 | 12.9 | 0.00 | 0.00 | 0.00 | 76 | 1019.6 |
| 20260506173043 | 17 | 231 | 4.8 | 12.9 | 0.00 | 0.00 | 0.00 | 76 | 1019.6 |
| 20260506172513 | 17 | 170 | 4.8 | 12.9 | 0.00 | 0.00 | 0.00 | 74 | 1019.6 |
| 20260506172012 | 17 | 190 | 4.8 | 12.9 | 0.00 | 0.00 | 0.00 | 73 | 1019.6 |
| 20260506171532 | 17 | 181 | 4.8 | 14.5 | 0.00 | 0.00 | 0.00 | 74 | 1019.7 |
| 20260506171011 | 17 | 183 | 4.8 | 14.5 | 0.00 | 0.00 | 0.00 | 74 | 1019.7 |
| 20260506170513 | 17 | 202 | 6.4 | 14.5 | 0.00 | 0.00 | 0.00 | 76 | 1019.6 |
| 20260506170034 | 17 | 194 | 4.8 | 14.5 | 0.00 | 0.00 | 0.00 | 74 | 1019.7 |
| 20260506165514 | 17 | 169 | 4.8 | 12.9 | 0.00 | 0.00 | 0.00 | 75 | 1019.6 |
| 20260506165014 | 17 | 195 | 3.2 | 11.3 | 0.00 | 0.00 | 0.00 | 76 | 1019.7 |
| 20260506164534 | 17 | 195 | 1.6 | 12.9 | 0.00 | 0.00 | 0.00 | 76 | 1019.7 |
| 20260506164014 | 17 | 192 | 4.8 | 12.9 | 0.00 | 0.00 | 0.00 | 76 | 1019.7 |
| 20260506163511 | 17 | 232 | 4.8 | 11.3 | 0.00 | 0.00 | 0.00 | 77 | 1019.7 |
| 20260506163037 | 17 | 246 | 4.8 | 9.7 | 0.00 | 0.00 | 0.00 | 75 | 1019.7 |
| 20260506162517 | 17 | 245 | 3.2 | 11.3 | 0.00 | 0.00 | 0.00 | 77 | 1019.7 |
| 20260506162016 | 17 | 195 | 4.8 | 11.3 | 0.00 | 0.00 | 0.00 | 77 | 1019.6 |
| 20260506161532 | 17 | 234 | 3.2 | 9.7 | 0.00 | 0.00 | 0.00 | 78 | 1019.6 |
| 20260506161013 | 17 | 190 | 1.6 | 9.7 | 0.00 | 0.00 | 0.00 | 79 | 1019.6 |
| 20260506160514 | 17 | 217 | 1.6 | 9.7 | 0.00 | 0.00 | 0.00 | 78 | 1019.6 |
| 20260506160032 | 17 | 165 | 3.2 | 9.7 | 0.00 | 0.00 | 0.00 | 78 | 1019.6 |
| 20260506155513 | 17 | 151 | 4.8 | 9.7 | 0.00 | 0.00 | 0.00 | 77 | 1019.6 |
| 20260506155015 | 17 | 189 | 1.6 | 11.3 | 0.00 | 0.00 | 0.00 | 77 | 1019.5 |
| 20260506154534 | 17 | 163 | 3.2 | 11.3 | 0.00 | 0.00 | 0.00 | 76 | 1019.6 |
| 20260506154013 | 17 | 132 | 1.6 | 11.3 | 0.00 | 0.00 | 0.00 | 76 | 1019.5 |
| 20260506153514 | 17 | 150 | 0.0 | 8.0 | 0.00 | 0.00 | 0.00 | 77 | 1019.5 |
| 20260506153030 | 17 | 115 | 1.6 | 6.4 | 0.00 | 0.00 | 0.00 | 75 | 1019.5 |
| 20260506152514 | 16 | 132 | 1.6 | 6.4 | 0.00 | 0.00 | 0.00 | 75 | 1019.5 |
| 20260506152015 | 16 | 65 | 1.6 | 6.4 | 0.00 | 0.00 | 0.00 | 77 | 1019.5 |
| 20260506151534 | 16 | 65 | 0.0 | 6.4 | 0.00 | 0.00 | 0.00 | 77 | 1019.5 |
| 20260506151013 | 15 | 83 | 1.6 | 6.4 | 0.00 | 0.00 | 0.00 | 77 | 1019.5 |
| 20260506150512 | 15 | 86 | 1.6 | 8.0 | 0.00 | 0.00 | 0.00 | 77 | 1019.6 |
| 20260506150030 | 15 | 79 | 3.2 | 8.0 | 0.00 | 0.00 | 0.00 | 77 | 1019.5 |
| 20260506145514 | 15 | 79 | 3.2 | 8.0 | 0.00 | 0.00 | 0.00 | 76 | 1019.6 |
| 20260506145014 | 15 | 46 | 3.2 | 8.0 | 0.00 | 0.00 | 0.00 | 76 | 1019.5 |
| 20260506144537 | 15 | 61 | 1.6 | 8.0 | 0.00 | 0.00 | 0.00 | 77 | 1019.5 |
| 20260506144010 | 14 | 72 | 3.2 | 8.0 | 0.00 | 0.00 | 0.00 | 77 | 1019.5 |